Hourly Data Report for October 04, 2017

All times are specified in Local Standard Time (LST). Add 1 hour to adjust for Daylight Saving Time where and when it is observed.

PINAWA
MANITOBA

50°10'38.020" N
96°03'53.000" W
268.00 m
503B1ER
71448
WEA

Download Data

Hourly Data (October 2017)
Hourly Data Report for October 4, 2017
Temp Definition
°C
Dew Point Temp Definition
°C
Rel Hum Definition
%
Wind Dir Definition
10's deg

Wind Spd Definition
km/h
Visibility Definition
km
Stn Press Definition
kPa
Hmdx Definition


Wind Chill Definition


Weather Definition


TIME
00:00 5.3 4.4 94 18 2   98.71     LegendNANA
01:00 6.7 3.9 82 25 7   98.77     LegendNANA
02:00 6.9 3.6 79 27 8   98.80     LegendNANA
03:00 6.6 3.2 79 25 7   98.78     LegendNANA
04:00 5.1 1.8 79 25 7   98.79     LegendNANA
05:00 4.2 1.8 84 23 6   98.81     LegendNANA
06:00 4.6 3.3 92 27 9   98.86     LegendNANA
07:00 5.3 4.5 94 27 4   98.87     LegendNANA
08:00 6.9 5.8 92 24 7   98.85     LegendNANA
09:00 8.1 5.4 83 25 10   98.85     LegendNANA
10:00 8.2 4.0 75 24 13   98.86     LegendNANA
11:00 8.8 3.4 69 24 12   98.83     LegendNANA
12:00 11.2 3.0 57 23 12   98.75     LegendNANA
13:00 12.5 1.9 48 25 13   98.66     LegendNANA
14:00 13.8 0.9 41 27 15   98.60     LegendNANA
15:00 14.0 0.6 40 25 16   98.57     LegendNANA
16:00 14.1 -0.6 36 27 14   98.54     LegendNANA
17:00 13.4 -0.1 40 26 11   98.53     LegendNANA
18:00 11.4 1.2 49 27 6   98.55     LegendNANA
19:00 9.7 2.0 58 25 6   98.57     LegendNANA
20:00 8.1 2.1 66 23 4   98.59     LegendNANA
21:00 7.5 2.5 71 26 6   98.60     LegendNANA
22:00 6.7 2.4 74 25 7   98.60     LegendNANA
23:00 6.2 2.2 76 27 7   98.62     LegendNANA

Notes on Data Quality.

Legend

  • E = Estimated
  • M = Missing
  • NA = Not Available
  • ‡ = Partner data that is not subject to review by the National Climate Archives
Date modified: